When you browse on this site, cookies collect data to enhance your experience and personalize the content and advertising you see.
Visit our Privacy Policy to learn more. By continuing to use the site, you agree to this use of cookies and data.
  • en France
  • Liste des pays
  • À 7 jours
  • Température de l'eau
  • Carte satellitaire
  • Carte météo
  • Widgets météo
  • user-avatar
    Se connecter

    Météo par heure à Barisal

    Ce jour, 21 Novembre, Mercredi

    Heure Température Précipitation Vent Pression Humidité
    00:00 +22°C° 0 mm 1 m/s 760 mmHg 70%
    01:00 +22°C° 0 mm 1 m/s 760 mmHg 69%
    02:00 +21°C° 0 mm 2 m/s 760 mmHg 68%
    03:00 +21°C° 0 mm 2 m/s 760 mmHg 67%
    04:00 +20°C° 0 mm 2 m/s 760 mmHg 69%
    05:00 +20°C° 0 mm 2 m/s 760 mmHg 70%
    06:00 +21°C° 0 mm 1 m/s 760 mmHg 68%
    07:00 +23°C° 0 mm 1 m/s 761 mmHg 64%
    08:00 +25°C° 0 mm 2 m/s 761 mmHg 60%
    09:00 +26°C° 0 mm 2 m/s 761 mmHg 56%
    10:00 +28°C° 0 mm 2 m/s 761 mmHg 53%
    11:00 +29°C° 0 mm 3 m/s 761 mmHg 49%
    12:00 +30°C° 0 mm 3 m/s 761 mmHg 43%
    13:00 +31°C° 0 mm 3 m/s 760 mmHg 43%
    14:00 +31°C° 0 mm 3 m/s 759 mmHg 42%
    15:00 +31°C° 0 mm 3 m/s 758 mmHg 42%
    16:00 +29°C° 0 mm 3 m/s 759 mmHg 46%
    17:00 +27°C° 0 mm 2 m/s 759 mmHg 49%
    18:00 +25°C° 0 mm 2 m/s 759 mmHg 53%
    19:00 +25°C° 0 mm 2 m/s 759 mmHg 54%
    20:00 +24°C° 0 mm 2 m/s 760 mmHg 56%
    21:00 +22°C° 0 mm 3 m/s 760 mmHg 58%
    22:00 +22°C° 0 mm 3 m/s 760 mmHg 60%
    23:00 +21°C° 0 mm 2 m/s 760 mmHg 62%

    Demain, 22 Novembre, Jeudi

    Heure Température Précipitation Vent Pression Humidité
    00:00 +21°C° 0 mm 2 m/s 760 mmHg 64%
    01:00 +21°C° 0 mm 2 m/s 760 mmHg 65%
    02:00 +20°C° 0 mm 2 m/s 760 mmHg 67%
    03:00 +20°C° 0 mm 2 m/s 759 mmHg 68%
    04:00 +20°C° 0 mm 2 m/s 760 mmHg 69%
    05:00 +19°C° 0 mm 2 m/s 760 mmHg 71%
    06:00 +19°C° 0 mm 2 m/s 760 mmHg 72%
    07:00 +21°C° 0 mm 2 m/s 761 mmHg 67%
    08:00 +24°C° 0 mm 2 m/s 761 mmHg 63%
    09:00 +26°C° 0 mm 2 m/s 762 mmHg 58%
    10:00 +27°C° 0 mm 3 m/s 762 mmHg 53%
    11:00 +28°C° 0 mm 3 m/s 761 mmHg 48%
    12:00 +30°C° 0 mm 3 m/s 761 mmHg 43%
    13:00 +30°C° 0 mm 3 m/s 760 mmHg 43%
    14:00 +30°C° 0 mm 3 m/s 760 mmHg 42%
    15:00 +30°C° 0 mm 3 m/s 759 mmHg 42%
    16:00 +29°C° 0 mm 2 m/s 759 mmHg 46%
    17:00 +27°C° 0 mm 2 m/s 759 mmHg 50%
    18:00 +25°C° 0 mm 1 m/s 759 mmHg 54%
    19:00 +24°C° 0 mm 1 m/s 760 mmHg 56%
    20:00 +24°C° 0 mm 1 m/s 760 mmHg 57%
    21:00 +23°C° 0 mm 1 m/s 761 mmHg 59%
    22:00 +23°C° 0 mm 1 m/s 761 mmHg 60%
    23:00 +23°C° 0 mm 2 m/s 761 mmHg 62%

    Après-demain, 23 Novembre, Vendredi

    Heure Température Précipitation Vent Pression Humidité
    00:00 +21°C° 0 mm 2 m/s 761 mmHg 63%
    01:00 +21°C° 0 mm 2 m/s 760 mmHg 65%
    02:00 +21°C° 0 mm 2 m/s 760 mmHg 68%
    03:00 +20°C° 0 mm 2 m/s 760 mmHg 70%
    04:00 +20°C° 0 mm 2 m/s 760 mmHg 72%
    05:00 +20°C° 0 mm 2 m/s 760 mmHg 74%
    06:00 +19°C° 0 mm 2 m/s 760 mmHg 76%
    07:00 +21°C° 0 mm 2 m/s 761 mmHg 70%
    08:00 +24°C° 0 mm 2 m/s 762 mmHg 65%
    09:00 +26°C° 0 mm 2 m/s 762 mmHg 60%
    10:00 +27°C° 0 mm 2 m/s 762 mmHg 54%
    11:00 +28°C° 0 mm 2 m/s 761 mmHg 48%
    12:00 +30°C° 0 mm 2 m/s 761 mmHg 43%
    13:00 +30°C° 0 mm 2 m/s 760 mmHg 42%
    14:00 +30°C° 0 mm 1 m/s 759 mmHg 41%
    15:00 +30°C° 0 mm 1 m/s 759 mmHg 40%
    16:00 +29°C° 0 mm 1 m/s 759 mmHg 44%
    17:00 +27°C° 0 mm 1 m/s 759 mmHg 48%
    18:00 +25°C° 0 mm 1 m/s 759 mmHg 53%
    19:00 +24°C° 0 mm 1 m/s 759 mmHg 54%
    20:00 +24°C° 0 mm 1 m/s 760 mmHg 56%
    21:00 +23°C° 0 mm 1 m/s 760 mmHg 57%
    22:00 +23°C° 0 mm 1 m/s 760 mmHg 58%
    23:00 +22°C° 0 mm 1 m/s 760 mmHg 59%

    24 Novembre, Samedi

    Heure Température Précipitation Vent Pression Humidité
    00:00 +21°C° 0 mm 2 m/s 760 mmHg 61%
    01:00 +21°C° 0 mm 2 m/s 760 mmHg 61%
    02:00 +20°C° 0 mm 2 m/s 759 mmHg 62%
    03:00 +20°C° 0 mm 2 m/s 759 mmHg 63%
    04:00 +20°C° 0 mm 2 m/s 759 mmHg 65%
    05:00 +20°C° 0 mm 2 m/s 760 mmHg 66%
    06:00 +19°C° 0 mm 2 m/s 760 mmHg 68%
    07:00 +21°C° 0 mm 2 m/s 761 mmHg 64%
    08:00 +24°C° 0 mm 2 m/s 761 mmHg 59%
    09:00 +26°C° 0 mm 2 m/s 762 mmHg 55%
    10:00 +27°C° 0 mm 2 m/s 762 mmHg 51%
    11:00 +29°C° 0 mm 2 m/s 761 mmHg 46%
    12:00 +30°C° 0 mm 2 m/s 761 mmHg 41%
    13:00 +30°C° 0 mm 2 m/s 760 mmHg 40%
    14:00 +30°C° 0 mm 2 m/s 759 mmHg 40%
    15:00 +30°C° 0 mm 2 m/s 759 mmHg 39%
    16:00 +29°C° 0 mm 2 m/s 759 mmHg 43%
    17:00 +27°C° 0 mm 2 m/s 759 mmHg 48%
    18:00 +25°C° 0 mm 1 m/s 759 mmHg 52%
    19:00 +24°C° 0 mm 1 m/s 759 mmHg 53%
    20:00 +24°C° 0 mm 1 m/s 760 mmHg 55%
    21:00 +23°C° 0 mm 1 m/s 760 mmHg 56%
    22:00 +23°C° 0 mm 1 m/s 760 mmHg 57%
    23:00 +22°C° 0 mm 1 m/s 760 mmHg 59%

    25 Novembre, Dimanche

    Heure Température Précipitation Vent Pression Humidité
    00:00 +22°C° 0 mm 1 m/s 760 mmHg 60%
    01:00 +22°C° 0 mm 1 m/s 759 mmHg 61%
    02:00 +21°C° 0 mm 1 m/s 759 mmHg 63%
    03:00 +20°C° 0 mm 2 m/s 759 mmHg 64%
    04:00 +20°C° 0 mm 2 m/s 759 mmHg 65%
    05:00 +19°C° 0 mm 2 m/s 759 mmHg 67%
    06:00 +19°C° 0 mm 2 m/s 759 mmHg 68%
    07:00 +21°C° 0 mm 2 m/s 760 mmHg 63%
    08:00 +24°C° 0 mm 2 m/s 760 mmHg 58%
    09:00 +26°C° 0 mm 2 m/s 761 mmHg 53%
    10:00 +27°C° 0 mm 2 m/s 760 mmHg 49%
    11:00 +28°C° 0 mm 2 m/s 760 mmHg 44%
    12:00 +29°C° 0 mm 2 m/s 759 mmHg 39%
    13:00 +30°C° 0 mm 2 m/s 759 mmHg 38%
    14:00 +30°C° 0 mm 1 m/s 758 mmHg 37%
    15:00 +30°C° 0 mm 1 m/s 757 mmHg 36%
    16:00 +28°C° 0 mm 1 m/s 758 mmHg 40%
    17:00 +27°C° 0 mm 1 m/s 758 mmHg 44%
    18:00 +25°C° 0 mm 1 m/s 758 mmHg 48%
    19:00 +24°C° 0 mm 1 m/s 759 mmHg 50%
    20:00 +24°C° 0 mm 1 m/s 759 mmHg 51%
    21:00 +23°C° 0 mm 1 m/s 760 mmHg 52%
    22:00 +23°C° 0 mm 1 m/s 759 mmHg 53%
    23:00 +22°C° 0 mm 1 m/s 759 mmHg 54%

    26 Novembre, Lundi

    Heure Température Précipitation Vent Pression Humidité
    00:00 +22°C° 0 mm 1 m/s 759 mmHg 54%
    01:00 +21°C° 0 mm 2 m/s 759 mmHg 56%
    02:00 +20°C° 0 mm 2 m/s 758 mmHg 58%
    03:00 +20°C° 0 mm 2 m/s 758 mmHg 60%
    04:00 +20°C° 0 mm 2 m/s 758 mmHg 64%
    05:00 +20°C° 0 mm 2 m/s 758 mmHg 67%
    06:00 +20°C° 0 mm 2 m/s 759 mmHg 70%
    07:00 +21°C° 0 mm 2 m/s 759 mmHg 65%
    08:00 +24°C° 0 mm 2 m/s 760 mmHg 61%
    09:00 +26°C° 0 mm 2 m/s 760 mmHg 56%
    10:00 +28°C° 0 mm 2 m/s 760 mmHg 51%
    11:00 +29°C° 0 mm 2 m/s 759 mmHg 46%
    12:00 +31°C° 0 mm 2 m/s 759 mmHg 42%
    13:00 +31°C° 0 mm 2 m/s 758 mmHg 41%
    14:00 +31°C° 0 mm 2 m/s 758 mmHg 40%
    15:00 +32°C° 0 mm 2 m/s 757 mmHg 39%
    16:00 +30°C° 0 mm 2 m/s 758 mmHg 44%
    17:00 +28°C° 0 mm 2 m/s 758 mmHg 49%
    18:00 +26°C° 0 mm 2 m/s 758 mmHg 54%
    19:00 +25°C° 0 mm 1 m/s 759 mmHg 58%
    20:00 +25°C° 0 mm 1 m/s 759 mmHg 61%
    21:00 +24°C° 0 mm 1 m/s 760 mmHg 65%
    22:00 +23°C° 0 mm 1 m/s 760 mmHg 67%
    23:00 +23°C° 0 mm 1 m/s 759 mmHg 69%
    Voir plus